Home   Weather   Lyon   Past weeks

Flag for France Past Weather in Lyon, Rhône-Alpes, France — Yesterday and Last 2 Weeks

Now
55 °F

Clear.


Feels Like: 55 °F
Forecast: 49 / 74 °F
Wind: No wind

Location: Lyon / Bron

Current Time: Sep 27, 2016 at 2:27:42 AM

Latest Report: Sep 27, 2016 at 1:30 AM


Visibility: 10 mi

Pressure: 30.21 "Hg

Humidity: 88%

Dew Point: 52 °F

Location of LyonLocation

Past Weather in Lyon — Graph

°F

Lyon Temperature Yesterday

Maximum temperature yesterday: 68 °F (at 2:30 PM)
Minimum temperature yesterday: 59 °F (at 1:00 AM)
Average temperature yesterday: 62 °F

High & Low Weather Summary for the Past Weeks

 TemperatureHumidityPressure
High91 °F (Sep 12, 4:00 PM)100% (Sep 18, 1:30 AM)30.30 "Hg (Sep 18, 1:30 AM)
Low48 °F (Sep 21, 6:00 AM)28% (Sep 12, 4:00 PM)29.80 "Hg (Sep 14, 6:30 PM)
Average65 °F69%30.05 "Hg
* Reported Sep 12 1:00 AM — Sep 27 1:00 AM, Lyon, Weather by CustomWeather, © 2016

Note: Actual official high and low records may vary slightly from our data, if they occured in-between our weather recording intervals... More about our weather records

Advertising

Lyon Weather History for the Previous 24 Hours

Scroll right to see more
 ConditionsComfort  
Time TempWeatherWind HumidityBarometerVisibility
1:00 AM
Tue, Sep 27
57 °FClear.No wind82%30.21 "Hg10 mi
12:30 AM59 °FClear.2 mph77%30.21 "Hg10 mi
12:00 AM61 °FPassing clouds.5 mph77%30.21 "HgN/A
11:30 PM
Mon, Sep 26
61 °FOvercast.6 mph77%30.21 "HgN/A
11:00 PM59 °FPassing clouds.5 mph88%30.21 "HgN/A
10:30 PM59 °FClear.5 mph88%30.21 "Hg10 mi
10:00 PM59 °FClear.2 mph88%30.21 "Hg10 mi
9:30 PM61 °FPassing clouds.No wind77%30.21 "HgN/A
9:00 PM63 °FMostly cloudy.2 mph73%30.18 "HgN/A
8:30 PM64 °FPassing clouds.3 mph73%30.18 "HgN/A
8:00 PM64 °FMostly cloudy.3 mph68%30.18 "HgN/A
7:30 PM66 °FOvercast.5 mph64%30.18 "HgN/A
7:00 PM66 °FPartly sunny.6 mph64%30.18 "HgN/A
6:30 PM66 °FOvercast.7 mph64%30.15 "HgN/A
6:00 PM66 °FOvercast.8 mph64%30.15 "HgN/A
5:30 PM66 °FMore clouds than sun.6 mph64%30.15 "HgN/A
4:30 PM66 °FOvercast.7 mph64%30.15 "HgN/A
4:00 PM66 °FOvercast.8 mph64%30.15 "HgN/A
3:30 PM66 °FOvercast.8 mph68%30.15 "HgN/A
3:00 PM68 °FCloudy.7 mph64%30.15 "HgN/A
2:30 PM68 °FBroken clouds.9 mph64%30.15 "HgN/A
2:00 PM66 °FPartly sunny.8 mph68%30.15 "HgN/A
1:30 PM66 °FBroken clouds.7 mph68%30.18 "HgN/A
1:00 PM63 °FMostly cloudy.7 mph77%30.18 "HgN/A
12:30 PM63 °FOvercast.7 mph77%30.18 "HgN/A
12:00 PM63 °FOvercast.9 mph77%30.18 "HgN/A
11:30 AM61 °FOvercast.8 mph83%30.18 "HgN/A
11:00 AM61 °FOvercast.7 mph83%30.21 "HgN/A
10:30 AM61 °FOvercast.9 mph77%30.21 "HgN/A
10:00 AM61 °FMostly cloudy.10 mph77%30.18 "HgN/A
9:30 AM61 °FOvercast.12 mph77%30.18 "HgN/A
9:00 AM61 °FOvercast.9 mph83%30.18 "HgN/A
8:30 AM61 °FOvercast.7 mph83%30.18 "HgN/A
8:00 AM61 °FOvercast.8 mph83%30.18 "HgN/A
7:30 AM59 °FOvercast.7 mph88%30.18 "HgN/A
7:00 AM59 °FPassing clouds.7 mph88%30.18 "HgN/A
6:30 AM61 °FOvercast.7 mph83%30.18 "HgN/A
6:00 AM61 °FOvercast.9 mph83%30.18 "HgN/A
5:30 AM61 °FOvercast.9 mph83%30.18 "HgN/A
5:00 AM61 °FMostly cloudy.8 mph83%30.18 "HgN/A
4:30 AM61 °FOvercast.7 mph83%30.18 "HgN/A
4:00 AM61 °FOvercast.8 mph88%30.18 "HgN/A
3:30 AM59 °FPassing clouds.7 mph94%30.18 "HgN/A
3:00 AM59 °FClear.6 mph94%30.18 "Hg10 mi
2:30 AM61 °FClear.6 mph88%30.18 "Hg10 mi
2:00 AM59 °FClear.6 mph94%30.18 "Hg10 mi
Weather by CustomWeather, © 2016

See weather overviewHow to use our weather pages